Time,TemperatureF,DewpointF,PressureIn,WindDirection,WindDirectionDegrees,WindSpeedMPH,WindSpeedGustMPH,Humidity,HourlyPrecipIn,Conditions,Clouds,dailyrainin,SolarRadiationWatts/m^2,SoftwareType,DateUTC
2013-07-10 00:01:00,66.0,55.0,-100.00,SSW,210,3.0,11.0,68,0.00,,,-99.99,17.000000,,2013-07-10 07:01:00,
2013-07-10 00:11:00,66.0,55.0,-100.00,SSW,210,3.0,11.0,68,0.00,,,-99.99,17.000000,,2013-07-10 07:11:00,
2013-07-10 00:43:00,66.0,56.0,-100.00,North,352,4.0,11.0,70,0.00,,,0.00,16.000000,,2013-07-10 07:43:00,
2013-07-10 00:53:00,66.0,56.0,-100.00,North,352,4.0,11.0,70,0.00,,,0.00,16.000000,,2013-07-10 07:53:00,
2013-07-10 01:01:00,66.0,56.0,-100.00,North,352,4.0,11.0,70,0.00,,,0.00,16.000000,,2013-07-10 08:01:00,
2013-07-10 01:11:00,66.0,56.0,-100.00,North,352,4.0,11.0,70,0.00,,,0.00,16.000000,,2013-07-10 08:11:00,
2013-07-10 01:33:00,65.0,54.0,-100.00,North,349,5.0,13.0,68,0.00,,,0.00,15.000000,,2013-07-10 08:33:00,
2013-07-10 01:42:00,65.0,54.0,-100.00,North,349,5.0,13.0,68,0.00,,,0.00,15.000000,,2013-07-10 08:42:00,
2013-07-10 01:53:00,65.0,54.0,-100.00,North,349,5.0,13.0,68,0.00,,,0.00,15.000000,,2013-07-10 08:53:00,
2013-07-10 02:02:00,65.0,54.0,-100.00,North,349,5.0,13.0,68,0.00,,,0.00,15.000000,,2013-07-10 09:02:00,
2013-07-10 02:12:00,65.0,54.0,-100.00,North,349,5.0,13.0,68,0.00,,,0.00,15.000000,,2013-07-10 09:12:00,
2013-07-10 02:33:00,62.0,51.0,-100.00,North,358,5.0,11.0,68,0.00,,,0.00,14.000000,,2013-07-10 09:33:00,
2013-07-10 02:43:00,62.0,51.0,-100.00,North,358,5.0,11.0,68,0.00,,,0.00,14.000000,,2013-07-10 09:43:00,
2013-07-10 02:53:00,62.0,51.0,-100.00,North,358,5.0,11.0,68,0.00,,,0.00,14.000000,,2013-07-10 09:53:00,
2013-07-10 03:01:00,62.0,51.0,-100.00,North,358,5.0,11.0,68,0.00,,,0.00,14.000000,,2013-07-10 10:01:00,
2013-07-10 03:13:00,62.0,51.0,-100.00,North,358,5.0,11.0,68,0.00,,,0.00,14.000000,,2013-07-10 10:13:00,
2013-07-10 03:51:00,-999.0,-99.9,-100.00,North,355,5.0,13.0,-999,-99.99,,,-99.99,13.000000,,2013-07-10 10:51:00,
2013-07-10 04:00:00,-999.0,-99.9,-100.00,North,355,5.0,13.0,-999,-99.99,,,-99.99,13.000000,,2013-07-10 11:00:00,
2013-07-10 04:11:00,60.0,52.0,-100.00,North,355,5.0,13.0,74,0.00,,,0.00,13.000000,,2013-07-10 11:11:00,
2013-07-10 07:43:00,61.0,56.0,-100.00,North,2,5.0,8.0,84,-99.99,,,0.00,124.000000,,2013-07-10 14:43:00,
2013-07-10 07:53:00,61.0,56.0,-100.00,North,2,5.0,8.0,84,-99.99,,,0.00,124.000000,,2013-07-10 14:53:00,
2013-07-10 08:01:00,61.0,56.0,-100.00,North,2,5.0,8.0,84,-99.99,,,0.00,124.000000,,2013-07-10 15:01:00,
2013-07-10 08:11:00,61.0,56.0,-100.00,North,2,5.0,8.0,84,-99.99,,,0.00,124.000000,,2013-07-10 15:11:00,
2013-07-10 09:44:00,68.0,57.0,-100.00,North,350,1.0,4.0,68,0.00,,,-99.99,582.000000,,2013-07-10 16:44:00,
2013-07-10 09:53:00,68.0,57.0,-100.00,North,350,1.0,4.0,68,0.00,,,-99.99,582.000000,,2013-07-10 16:53:00,
2013-07-10 10:01:00,68.0,57.0,-100.00,North,350,1.0,4.0,68,0.00,,,-99.99,582.000000,,2013-07-10 17:01:00,
2013-07-10 10:11:00,68.0,57.0,-100.00,North,350,1.0,4.0,68,0.00,,,-99.99,582.000000,,2013-07-10 17:11:00,
2013-07-10 10:43:00,71.0,59.0,-100.00,North,1,3.0,8.0,67,0.00,,,0.00,820.000000,,2013-07-10 17:43:00,
2013-07-10 10:53:00,71.0,59.0,-100.00,North,1,3.0,8.0,67,0.00,,,0.00,820.000000,,2013-07-10 17:53:00,
2013-07-10 11:02:00,71.0,59.0,-100.00,North,1,3.0,8.0,67,0.00,,,0.00,820.000000,,2013-07-10 18:02:00,
2013-07-10 11:11:00,71.0,59.0,-100.00,North,1,3.0,8.0,67,0.00,,,0.00,820.000000,,2013-07-10 18:11:00,
2013-07-10 11:44:00,75.0,60.0,-100.00,NE,38,2.0,10.0,60,0.00,,,0.00,1027.000000,,2013-07-10 18:44:00,
2013-07-10 11:53:00,75.0,60.0,-100.00,NE,38,2.0,10.0,60,0.00,,,0.00,1027.000000,,2013-07-10 18:53:00,
2013-07-10 12:01:00,75.0,60.0,-100.00,NE,38,2.0,10.0,60,0.00,,,0.00,1027.000000,,2013-07-10 19:01:00,
2013-07-10 12:11:00,75.0,60.0,-100.00,NE,38,2.0,10.0,60,0.00,,,0.00,1027.000000,,2013-07-10 19:11:00,
2013-07-10 12:32:00,77.0,58.0,-100.00,South,189,3.0,10.0,52,0.00,,,0.00,1186.000000,,2013-07-10 19:32:00,
2013-07-10 12:42:00,77.0,58.0,-100.00,South,189,3.0,10.0,52,0.00,,,0.00,1186.000000,,2013-07-10 19:42:00,
2013-07-10 12:53:00,77.0,58.0,-100.00,South,189,3.0,10.0,52,0.00,,,0.00,1186.000000,,2013-07-10 19:53:00,
2013-07-10 13:01:00,77.0,58.0,-100.00,South,189,3.0,10.0,52,0.00,,,0.00,1186.000000,,2013-07-10 20:01:00,
2013-07-10 13:11:00,77.0,58.0,-100.00,South,189,3.0,10.0,52,0.00,,,0.00,1186.000000,,2013-07-10 20:11:00,
2013-07-10 13:32:00,79.0,57.0,-100.00,North,353,3.0,11.0,47,0.00,,,0.00,1284.000000,,2013-07-10 20:32:00,
2013-07-10 13:43:00,79.0,57.0,-100.00,North,353,3.0,11.0,47,0.00,,,0.00,1284.000000,,2013-07-10 20:43:00,
2013-07-10 13:52:00,79.0,57.0,-100.00,North,353,3.0,11.0,47,0.00,,,0.00,1284.000000,,2013-07-10 20:52:00,
2013-07-10 14:01:00,79.0,57.0,-100.00,North,353,3.0,11.0,47,0.00,,,0.00,1284.000000,,2013-07-10 21:01:00,
2013-07-10 14:11:00,79.0,57.0,-100.00,North,353,3.0,11.0,47,0.00,,,0.00,1284.000000,,2013-07-10 21:11:00,
2013-07-10 14:42:00,81.0,55.0,-100.00,SW,223,2.0,12.0,41,0.00,,,0.00,1309.000000,,2013-07-10 21:42:00,
2013-07-10 14:52:00,81.0,55.0,-100.00,SW,223,2.0,12.0,41,0.00,,,0.00,1309.000000,,2013-07-10 21:52:00,
2013-07-10 15:01:00,81.0,55.0,-100.00,SW,223,2.0,12.0,41,0.00,,,0.00,1309.000000,,2013-07-10 22:01:00,
2013-07-10 15:11:00,81.0,55.0,-100.00,SW,223,2.0,12.0,41,0.00,,,0.00,1309.000000,,2013-07-10 22:11:00,
2013-07-10 15:33:00,81.0,54.0,-100.00,SE,146,3.0,12.0,40,0.00,,,0.00,1255.000000,,2013-07-10 22:33:00,
2013-07-10 15:43:00,81.0,54.0,-100.00,SE,146,3.0,12.0,40,0.00,,,0.00,1255.000000,,2013-07-10 22:43:00,
2013-07-10 15:53:00,81.0,54.0,-100.00,SE,146,3.0,12.0,40,0.00,,,0.00,1255.000000,,2013-07-10 22:53:00,
2013-07-10 16:01:00,81.0,54.0,-100.00,SE,146,3.0,12.0,40,0.00,,,0.00,1255.000000,,2013-07-10 23:01:00,
2013-07-10 16:11:00,81.0,54.0,-100.00,SE,146,3.0,12.0,40,0.00,,,0.00,1255.000000,,2013-07-10 23:11:00,
2013-07-10 16:52:00,82.0,55.0,-100.00,ENE,59,2.0,10.0,39,0.00,,,0.00,1121.000000,,2013-07-10 23:52:00,
2013-07-10 17:01:00,82.0,55.0,-100.00,ENE,59,2.0,10.0,39,0.00,,,0.00,1121.000000,,2013-07-11 00:01:00,
2013-07-10 17:11:00,82.0,55.0,-100.00,ENE,59,2.0,10.0,39,0.00,,,0.00,1121.000000,,2013-07-11 00:11:00,
2013-07-10 17:42:00,83.0,54.0,-100.00,SSE,156,2.0,11.0,37,0.00,,,0.00,906.000000,,2013-07-11 00:42:00,
2013-07-10 17:52:00,83.0,54.0,-100.00,SSE,156,2.0,11.0,37,0.00,,,0.00,906.000000,,2013-07-11 00:52:00,
2013-07-10 18:01:00,83.0,54.0,-100.00,SSE,156,2.0,11.0,37,0.00,,,0.00,906.000000,,2013-07-11 01:01:00,
2013-07-10 18:11:00,83.0,54.0,-100.00,SSE,156,2.0,11.0,37,0.00,,,0.00,906.000000,,2013-07-11 01:11:00,
2013-07-10 18:43:00,80.0,53.0,-100.00,NNE,25,3.0,10.0,40,0.00,,,0.00,682.000000,,2013-07-11 01:43:00,
2013-07-10 18:52:00,80.0,53.0,-100.00,NNE,25,3.0,10.0,40,0.00,,,0.00,682.000000,,2013-07-11 01:52:00,
2013-07-10 19:02:00,80.0,53.0,-100.00,NNE,25,3.0,10.0,40,0.00,,,0.00,682.000000,,2013-07-11 02:02:00,
2013-07-10 19:11:00,80.0,53.0,-100.00,NNE,25,3.0,10.0,40,0.00,,,0.00,682.000000,,2013-07-11 02:11:00,
2013-07-10 19:32:00,77.0,53.0,-100.00,ENE,75,2.0,10.0,44,0.00,,,0.00,429.000000,,2013-07-11 02:32:00,
2013-07-10 19:43:00,77.0,53.0,-100.00,ENE,75,2.0,10.0,44,0.00,,,0.00,429.000000,,2013-07-11 02:43:00,
2013-07-10 19:53:00,77.0,53.0,-100.00,ENE,75,2.0,10.0,44,0.00,,,0.00,429.000000,,2013-07-11 02:53:00,
2013-07-10 20:01:00,77.0,53.0,-100.00,ENE,75,2.0,10.0,44,0.00,,,0.00,429.000000,,2013-07-11 03:01:00,
2013-07-10 20:11:00,77.0,53.0,-100.00,ENE,75,2.0,10.0,44,0.00,,,0.00,429.000000,,2013-07-11 03:11:00,
2013-07-10 20:33:00,68.0,54.0,-100.00,East,82,0.0,10.0,62,0.00,,,0.00,89.000000,,2013-07-11 03:33:00,
2013-07-10 20:42:00,68.0,54.0,-100.00,East,82,0.0,10.0,62,0.00,,,0.00,89.000000,,2013-07-11 03:42:00,
2013-07-10 20:52:00,68.0,54.0,-100.00,East,82,0.0,10.0,62,0.00,,,0.00,89.000000,,2013-07-11 03:52:00,
2013-07-10 21:01:00,68.0,54.0,-100.00,East,82,0.0,10.0,62,0.00,,,0.00,89.000000,,2013-07-11 04:01:00,
2013-07-10 21:11:00,68.0,54.0,-100.00,East,82,0.0,10.0,62,0.00,,,0.00,89.000000,,2013-07-11 04:11:00,
2013-07-10 21:42:00,64.0,54.0,-100.00,East,100,2.0,9.0,70,0.00,,,0.00,28.000000,,2013-07-11 04:42:00,
2013-07-10 21:53:00,64.0,54.0,-100.00,East,100,2.0,9.0,70,0.00,,,0.00,28.000000,,2013-07-11 04:53:00,
2013-07-10 22:01:00,64.0,54.0,-100.00,East,100,2.0,9.0,70,0.00,,,0.00,28.000000,,2013-07-11 05:01:00,
2013-07-10 22:12:00,64.0,54.0,-100.00,East,100,2.0,9.0,70,0.00,,,0.00,28.000000,,2013-07-11 05:12:00,
2013-07-10 22:43:00,60.0,51.0,-100.00,West,268,3.0,16.0,73,0.00,,,0.00,15.000000,,2013-07-11 05:43:00,
2013-07-10 22:52:00,60.0,51.0,-100.00,West,268,3.0,16.0,73,0.00,,,0.00,15.000000,,2013-07-11 05:52:00,
2013-07-10 23:01:00,60.0,51.0,-100.00,West,268,3.0,16.0,73,0.00,,,0.00,15.000000,,2013-07-11 06:01:00,
2013-07-10 23:11:00,60.0,51.0,-100.00,West,268,3.0,16.0,73,0.00,,,0.00,15.000000,,2013-07-11 06:11:00,
2013-07-10 23:43:00,58.0,49.0,-100.00,East,79,5.0,14.0,71,0.00,,,0.00,13.000000,,2013-07-11 06:43:00,
2013-07-10 23:53:00,58.0,49.0,-100.00,East,79,5.0,14.0,71,0.00,,,0.00,13.000000,,2013-07-11 06:53:00,